Centralia, IL

11:38 AM CST on January 23, 2017 (GMT -0600)
Centralia Municipal

Weather History for KENL - April, 2013

Change the Weather History Date:

Friday, April 5, 2013

  Actual Average (KSLO) Record (KSLO)
Temperature  
Mean Temperature 52 °F -  
Max Temperature 65 °F 59 °F 86 °F (1988)
Min Temperature 38 °F 39 °F 26 °F (2002)
Degree Days  
Heating Degree Days 14    
Growing Degree Days 2 (Base 50)    
Moisture  
Dew Point 36 °F    
Average Humidity 56    
Maximum Humidity 80    
Minimum Humidity 29    
Precipitation  
Precipitation 0.00 in - - ()
Sea Level Pressure  
Sea Level Pressure 30.10 in    
Wind  
Wind Speed 3 mph (NW)    
Max Wind Speed 12 mph    
Max Gust Speed 17 mph    
Visibility 10 miles    
Events      
Averages and records for this station are not official NWS values.
T = Trace of Precipitation, MM = Missing Value Source: NWS Daily Summary

Daily Weather History Graph

Daily Weather History Graph

Search for Another Location

Airport or City:

Trip Planner

Search our weather history database for the weather conditions in past years. The results will help you decide how hot, cold, wet, or windy it might be!

Date:

Astronomy

Apr. 05, 2013 Rise Set
Actual Time 6:34 AM CDT 7:23 PM CDT
Civil Twilight 6:07 AM CDT 7:50 PM CDT
Nautical Twilight 5:36 AM CDT 8:22 PM CDT
Astronomical Twilight 5:03 AM CDT 8:55 PM CDT
Moon 3:38 AM CDT (4/5) 2:50 PM CDT (4/5)
Length of Visible Light 13h 42m
Length of Day
12h 49m
Waning Crescent, 23% of the Moon is Illuminated
Apr 5
Waning Crescent
Apr 10
New
Apr 18
First Quarter
Apr 25
Full
May 2
Last Quarter

Hourly Weather History & Observations

Time (CDT) Temp. Windchill Dew Point Humidity Pressure Visibility Wind Dir Wind Speed Gust Speed Precip Events Conditions
12:15 AM 43.3 °F - 34.5 °F 71% 30.05 in 10.0 mi Calm Calm - N/A   Clear
12:35 AM 41.9 °F - 34.2 °F 74% 30.04 in 10.0 mi Calm Calm - N/A   Clear
12:55 AM 41.2 °F - 33.8 °F 75% 30.05 in 10.0 mi Calm Calm - N/A   Clear
1:15 AM 41.4 °F 39.4 °F 34.2 °F 76% 30.05 in 10.0 mi West 3.5 mph - N/A   Clear
1:35 AM 40.8 °F 38.8 °F 34.2 °F 77% 30.05 in 10.0 mi West 3.5 mph - N/A   Clear
1:55 AM 40.5 °F 38.4 °F 33.3 °F 75% 30.05 in 10.0 mi West 3.5 mph - N/A   Clear
2:15 AM 41.0 °F - 32.7 °F 72% 30.05 in 10.0 mi Calm Calm - N/A   Clear
2:35 AM 40.3 °F 38.2 °F 33.1 °F 75% 30.05 in 10.0 mi WSW 3.5 mph - N/A   Clear
2:55 AM 40.1 °F 36.9 °F 32.9 °F 75% 30.05 in 10.0 mi West 4.6 mph - N/A   Clear
3:15 AM 40.3 °F 38.2 °F 32.9 °F 75% 30.05 in 10.0 mi WSW 3.5 mph - N/A   Clear
3:35 AM 39.7 °F 37.6 °F 32.7 °F 76% 30.06 in 10.0 mi WSW 3.5 mph - N/A   Clear
3:55 AM 39.0 °F 34.8 °F 32.2 °F 76% 30.06 in 10.0 mi West 5.8 mph - N/A   Clear
4:15 AM 39.7 °F 37.6 °F 32.7 °F 76% 30.06 in 10.0 mi WSW 3.5 mph - N/A   Clear
4:35 AM 38.7 °F 36.3 °F 32.9 °F 80% 30.07 in 10.0 mi WSW 3.5 mph - N/A   Clear
4:55 AM 39.4 °F 37.2 °F 33.1 °F 78% 30.08 in 10.0 mi WSW 3.5 mph - N/A   Clear
5:15 AM 39.7 °F 37.6 °F 32.9 °F 77% 30.08 in 10.0 mi WSW 3.5 mph - N/A   Clear
5:35 AM 39.9 °F 36.7 °F 32.2 °F 74% 30.09 in 10.0 mi West 4.6 mph - N/A   Clear
5:55 AM 38.3 °F 35.9 °F 32.2 °F 79% 30.09 in 10.0 mi WSW 3.5 mph - N/A   Clear
6:15 AM 39.4 °F 37.2 °F 32.9 °F 78% 30.10 in 10.0 mi WSW 3.5 mph - N/A   Clear
6:35 AM 38.1 °F 35.7 °F 32.0 °F 79% 30.10 in 10.0 mi WSW 3.5 mph - N/A   Clear
6:55 AM 38.3 °F 33.9 °F 32.0 °F 78% 30.11 in 10.0 mi WSW 5.8 mph - N/A   Clear
7:15 AM 39.4 °F 36.1 °F 33.3 °F 79% 30.11 in 10.0 mi SW 4.6 mph - N/A   Clear
7:35 AM 42.1 °F 40.2 °F 35.6 °F 78% 30.11 in 10.0 mi West 3.5 mph - N/A   Clear
7:55 AM 45.1 °F 43.7 °F 36.0 °F 70% 30.12 in 10.0 mi WSW 3.5 mph - N/A   Clear
8:15 AM 46.9 °F - 36.1 °F 66% 30.12 in 10.0 mi West 3.5 mph - N/A   Clear
8:35 AM 49.8 °F - 34.9 °F 56% 30.12 in 10.0 mi NNW 5.8 mph - N/A   Clear
8:55 AM 50.4 °F - 34.9 °F 55% 30.12 in 10.0 mi NNW 6.9 mph - N/A   Clear
9:15 AM 51.4 °F - 36.1 °F 56% 30.13 in 10.0 mi NNW 5.8 mph - N/A   Clear
9:35 AM 52.7 °F - 37.0 °F 55% 30.13 in 10.0 mi North 4.6 mph - N/A   Clear
9:55 AM 54.0 °F - 38.3 °F 55% 30.13 in 10.0 mi North 5.8 mph - N/A   Clear
10:15 AM 55.4 °F - 39.2 °F 54% 30.14 in 10.0 mi North 4.6 mph - N/A   Clear
10:35 AM 56.8 °F - 40.5 °F 54% 30.15 in 10.0 mi NNW 6.9 mph - N/A   Clear
10:55 AM 57.4 °F - 40.5 °F 53% 30.15 in 10.0 mi NW 6.9 mph - N/A   Clear
11:15 AM 58.5 °F - 41.2 °F 53% 30.15 in 10.0 mi NNW 6.9 mph - N/A   Clear
11:35 AM 59.5 °F - 41.2 °F 51% 30.15 in 10.0 mi NNW 5.8 mph - N/A   Clear
11:55 AM 60.6 °F - 40.1 °F 47% 30.15 in 10.0 mi NNW 9.2 mph - N/A   Clear
12:15 PM 61.0 °F - 38.1 °F 43% 30.15 in 10.0 mi NW 6.9 mph - N/A   Clear
12:35 PM 61.3 °F - 37.8 °F 42% 30.15 in 10.0 mi NW 8.1 mph - N/A   Clear
12:55 PM 62.4 °F - 34.5 °F 35% 30.14 in 10.0 mi NW 11.5 mph 17.3 mph N/A   Clear
1:15 PM 62.4 °F - 36.0 °F 37% 30.14 in 10.0 mi North 5.8 mph - N/A   Clear
1:35 PM 62.6 °F - 33.4 °F 34% 30.13 in 10.0 mi NNW 3.5 mph - N/A   Clear
1:55 PM 62.8 °F - 33.1 °F 33% 30.11 in 10.0 mi NW 6.9 mph - N/A   Clear
2:15 PM 63.7 °F - 33.4 °F 32% 30.11 in 10.0 mi NW 5.8 mph 9.2 mph N/A   Clear
2:35 PM 64.0 °F - 33.6 °F 32% 30.10 in 10.0 mi NW 8.1 mph - N/A   Clear
2:55 PM 64.8 °F - 33.8 °F 32% 30.10 in 10.0 mi North 4.6 mph - N/A   Clear
3:15 PM 64.4 °F - 30.9 °F 29% 30.09 in 10.0 mi NW 4.6 mph - N/A   Clear
3:35 PM 65.1 °F - 32.2 °F 29% 30.08 in 10.0 mi North 6.9 mph - N/A   Clear
3:55 PM 64.9 °F - 34.2 °F 32% 30.09 in 10.0 mi NNE 3.5 mph - N/A   Clear
4:15 PM 64.6 °F - 33.4 °F 31% 30.08 in 10.0 mi NNW 4.6 mph - N/A   Clear
4:35 PM 65.3 °F - 34.3 °F 32% 30.08 in 10.0 mi NW 6.9 mph - N/A   Clear
4:55 PM 65.3 °F - 36.0 °F 34% 30.08 in 10.0 mi North 6.9 mph - N/A   Clear
5:15 PM 65.3 °F - 35.4 °F 33% 30.08 in 10.0 mi NNW 4.6 mph - N/A   Clear
5:35 PM 64.8 °F - 35.1 °F 33% 30.09 in 10.0 mi NNW 5.8 mph - N/A   Clear
5:55 PM 64.8 °F - 36.0 °F 34% 30.09 in 10.0 mi NW 5.8 mph - N/A   Clear
6:15 PM 64.4 °F - 36.0 °F 35% 30.09 in 10.0 mi Calm Calm - N/A   Clear
6:35 PM 63.9 °F - 35.1 °F 34% 30.09 in 10.0 mi Calm Calm - N/A   Clear
6:55 PM 62.6 °F - 35.8 °F 37% 30.08 in 10.0 mi North 3.5 mph - N/A   Clear
7:15 PM 61.2 °F - 36.5 °F 40% 30.08 in 10.0 mi Calm Calm - N/A   Clear
7:35 PM 61.2 °F - 34.2 °F 36% 30.09 in 10.0 mi Calm Calm - N/A   Clear
7:55 PM 59.2 °F - 37.9 °F 45% 30.09 in 10.0 mi Calm Calm - N/A   Clear
8:15 PM 56.8 °F - 38.7 °F 51% 30.09 in 10.0 mi Calm Calm - N/A   Clear
8:35 PM 54.1 °F - 44.2 °F 69% 30.10 in 10.0 mi Calm Calm - N/A   Clear
8:55 PM 53.2 °F - 44.6 °F 72% 30.10 in 10.0 mi Calm Calm - N/A   Clear
9:15 PM 52.5 °F - 43.5 °F 71% 30.10 in 10.0 mi Calm Calm - N/A   Clear
9:35 PM 50.5 °F - 43.0 °F 75% 30.11 in 10.0 mi East 4.6 mph - N/A   Clear
9:55 PM 50.9 °F - 43.7 °F 76% 30.10 in 10.0 mi East 4.6 mph - N/A   Clear
10:15 PM 51.8 °F - 40.3 °F 65% 30.09 in 10.0 mi East 5.8 mph - N/A   Clear
10:35 PM 52.3 °F - 38.3 °F 59% 30.09 in 10.0 mi ESE 3.5 mph - N/A   Clear
10:55 PM 53.8 °F - 36.1 °F 51% 30.08 in 10.0 mi East 3.5 mph - N/A   Clear
11:15 PM 54.1 °F - 35.2 °F 49% 30.07 in 10.0 mi East 5.8 mph - N/A   Clear
11:35 PM 51.8 °F - 36.7 °F 56% 30.08 in 10.0 mi ESE 4.6 mph - N/A   Clear
11:55 PM 51.8 °F - 37.4 °F 58% 30.08 in 10.0 mi SE 5.8 mph - N/A   Clear